Wind_Speed
22 22 23 23 24 25 25 25 26 26 27 28 28 28 27 28 31 33 34 34 35 36 37 39 40 40 41 42 43 43 43 44 44 44 45 46 46 46 46 46 46 47 48 48
22 22 22 22 23 24 25 25 25 26 27 29 30 30 28 28 29 31 32 33 34 35 37 39 39 40 41 42 43 44 45 44 46 45 45 45 46 47 47 48 48 49 49 49
22 22 22 23 24 24 24 25 25 26 26 28 29 29 28 28 29 30 31 32 33 35 37 39 39 39 40 41 42 44 46 45 46 47 48 47 47 47 49 50 50 49 49 49
21 21 22 23 24 24 24 25 26 27 27 27 28 29 28 29 29 30 31 32 33 35 37 38 39 40 40 41 42 43 45 46 46 48 49 49 49 49 49 49 49 50 50 50
22 22 22 23 23 24 24 25 26 27 28 28 27 30 29 28 29 30 31 32 33 34 36 37 39 40 40 41 43 43 44 45 46 47 49 50 50 49 49 49 49 49 49 50
21 22 22 22 22 23 24 25 26 26 27 28 26 28 28 28 28 28 29 31 32 34 35 36 38 39 39 41 42 43 43 44 44 45 46 48 48 48 48 48 48 49 49 49
21 21 22 22 22 22 23 23 24 25 26 27 27 28 28 27 27 28 29 30 31 33 34 35 37 38 39 40 41 42 43 44 44 44 44 44 46 47 48 48 48 48 48 49
21 20 20 21 22 22 22 22 22 24 26 25 25 26 27 26 27 28 29 30 30 32 33 34 36 38 39 40 41 41 41 42 43 43 43 44 45 46 47 47 46 45 46 47
20 20 20 20 21 21 21 22 22 24 25 26 25 25 26 25 26 27 28 29 30 32 33 34 35 36 38 40 41 41 41 41 43 43 43 43 44 45 45 45 45 45 45 45
18 19 18 19 20 20 21 21 22 23 24 26 25 24 25 24 25 27 27 29 31 31 31 32 33 33 35 37 38 39 39 40 41 42 42 42 41 42 42 42 43 43 43 43
19 19 18 19 19 19 20 20 21 23 24 26 25 23 24 24 24 25 26 27 28 29 29 30 30 31 32 33 35 36 36 37 37 38 39 39 39 38 39 39 40 40 41 42
19 19 18 18 19 19 20 20 21 22 23 24 24 22 22 23 24 25 26 26 27 27 28 29 29 31 31 32 33 33 34 34 34 34 36 36 37 36 36 36 37 39 39 40
18 19 19 19 19 19 20 20 21 22 23 23 23 21 21 23 24 25 26 26 26 27 27 28 29 30 30 30 31 31 31 31 31 33 33 34 35 35 34 35 36 36 38 39
19 19 19 19 19 20 20 20 21 22 23 22 22 22 21 23 23 24 25 26 27 27 27 28 29 29 29 30 30 29 29 29 30 31 31 31 32 34 34 34 34 35 35 35
19 19 19 19 19 20 21 20 21 22 22 22 21 21 21 22 23 24 25 26 27 27 28 28 29 29 29 29 29 27 28 27 27 28 30 30 30 32 33 33 33 33 32 32
19 19 18 18 19 19 19 20 21 21 21 22 21 21 21 22 22 23 24 25 26 27 27 28 28 28 26 26 27 27 26 25 25 26 27 28 28 28 30 31 31 32 31 30
20 19 19 18 18 18 18 18 19 20 20 21 21 21 21 21 22 23 25 26 26 27 27 27 27 27 25 25 25 26 25 24 24 23 24 25 26 27 28 28 28 27 28 29
18 19 19 18 18 19 18 19 20 20 20 20 20 21 22 22 22 23 24 25 25 26 26 26 26 26 24 24 24 24 24 23 21 21 22 23 24 25 25 25 25 25 25 26
18 18 18 18 18 18 18 19 20 20 20 20 20 21 21 22 22 23 24 24 25 25 25 25 25 25 25 24 24 23 22 21 21 21 20 21 21 22 23 23 24 24 25 26
18 19 19 19 18 18 19 19 19 20 21 20 21 21 22 22 23 23 23 24 24 24 24 24 24 24 24 24 24 21 20 20 19 19 19 18 19 21 21 21 22 23 23 24
17 18 19 19 20 20 19 19 20 21 21 21 22 22 22 23 23 24 24 24 24 24 23 23 24 24 23 23 22 21 20 19 18 18 19 19 19 19 19 20 21 22 22 23
17 18 18 19 19 19 20 20 20 21 21 21 22 22 21 22 22 23 23 23 24 24 23 23 23 22 22 22 21 20 20 19 18 18 19 19 18 18 18 18 19 20 21 21
19 19 19 19 19 19 20 20 21 21 21 21 21 21 21 22 22 22 23 22 23 23 24 23 23 22 21 21 21 20 20 19 19 19 19 19 18 18 18 18 18 18 19 20
19 19 19 19 19 19 20 20 20 21 21 21 22 22 22 22 22 22 23 23 23 24 23 23 23 22 22 22 21 20 19 19 19 19 18 18 18 18 18 17 17 17 18 18
19 19 19 19 19 19 19 19 20 20 21 21 22 22 22 22 22 22 22 23 23 23 22 22 22 21 21 20 20 19 18 18 19 19 18 18 18 18 18 18 18 17 17 17
18 19 19 19 19 20 19 19 20 20 20 20 20 21 21 21 21 21 21 22 22 21 21 20 20 20 21 21 20 19 19 19 19 19 18 19 19 19 18 17 17 17 16 17
Wind_Direction
266 264 263 262 262 262 263 263 261 259 260 262 265 265 264 262 262 265 264 265 266 266 264 263 263 263 263 261 262 263 264 263 262 261 261 261 261 260 260 259 259 260 262 262
266 265 265 263 262 262 262 263 263 262 262 264 267 268 268 267 265 266 267 267 269 268 267 266 265 265 264 263 263 264 265 266 263 261 260 261 262 261 260 259 259 260 261 260
268 267 264 261 260 261 263 265 264 265 264 266 268 267 267 268 269 271 272 272 272 271 270 268 266 265 265 265 266 266 266 267 264 262 262 262 262 262 262 260 259 260 260 261
266 264 262 260 259 260 263 266 268 268 268 269 270 270 268 271 271 272 273 274 274 274 272 270 268 268 267 267 268 267 267 266 265 263 263 263 263 263 262 261 260 260 260 261
266 265 264 262 260 261 264 266 269 271 272 272 273 273 273 274 273 275 276 277 277 277 275 272 271 271 270 270 270 269 268 266 265 264 263 263 263 263 263 262 261 262 261 261
265 265 264 263 262 263 265 266 269 270 273 274 276 277 277 276 277 279 280 281 280 280 279 276 274 273 273 272 271 270 269 268 266 265 265 264 263 263 263 262 262 263 263 262
267 266 264 263 262 262 264 266 268 271 274 278 278 277 281 282 282 283 283 282 283 283 283 281 279 276 275 274 272 271 271 270 267 266 266 267 265 264 264 263 263 263 263 263
269 266 263 261 263 264 264 266 268 274 278 280 279 279 282 284 285 286 285 285 285 287 286 285 283 280 277 276 275 276 273 271 268 267 267 269 268 267 266 265 264 264 263 263
272 266 262 261 262 263 264 265 269 274 276 278 280 282 282 283 285 286 287 288 289 290 289 287 286 285 281 279 277 278 276 273 270 267 267 268 269 267 265 264 262 263 263 262
275 270 263 259 261 264 266 267 269 272 277 281 282 284 285 286 288 289 289 292 294 293 291 291 291 290 287 284 281 279 278 275 272 269 267 267 267 267 266 264 262 262 262 263
274 270 265 263 263 267 268 271 272 273 276 280 284 284 287 288 290 292 292 294 297 296 294 294 294 294 292 288 285 282 280 277 273 270 268 267 266 267 267 265 263 262 262 263
273 269 269 269 269 270 271 273 275 275 277 280 283 285 288 289 291 294 296 297 299 299 297 298 297 297 296 292 289 286 283 280 275 272 270 267 264 265 268 267 264 263 263 263
274 270 271 271 271 272 274 276 277 276 277 280 281 284 287 289 291 294 295 298 300 300 299 298 299 298 298 296 293 290 287 282 277 273 270 268 265 265 268 267 265 264 262 262
274 270 270 274 276 277 278 277 276 275 277 280 282 285 286 288 290 294 297 299 301 302 301 300 299 299 299 298 296 294 289 284 279 274 272 270 266 266 267 267 264 262 262 260
272 271 271 274 277 278 276 276 274 275 277 279 282 283 287 290 292 296 299 300 302 305 304 302 301 300 298 298 298 295 292 286 279 276 273 271 269 268 267 265 262 261 261 260
270 271 271 273 275 276 275 276 275 275 277 279 279 282 287 291 295 298 300 300 302 305 306 306 305 304 301 299 299 296 293 287 284 280 274 270 271 270 266 264 262 262 261 261
272 270 271 272 274 277 276 277 276 276 278 279 280 282 286 290 294 297 299 301 304 306 306 306 309 307 302 301 301 297 294 291 287 281 275 276 273 269 267 264 262 261 262 262
272 270 272 276 276 278 282 281 279 278 279 280 282 284 286 289 293 297 301 304 305 305 305 306 307 308 306 303 302 299 295 292 288 283 280 280 275 269 266 265 262 263 263 263
271 271 272 276 278 280 283 282 281 281 281 282 284 286 286 289 292 297 301 304 308 308 307 307 308 307 306 303 302 299 295 292 291 289 286 281 276 272 268 266 262 263 265 262
273 272 272 274 278 283 286 283 282 282 281 281 282 284 286 288 291 296 299 302 305 309 309 310 309 309 307 305 304 300 296 295 293 290 288 283 276 271 267 267 265 267 266 263
275 274 274 276 279 285 287 286 284 284 284 283 284 286 287 290 293 296 296 299 303 307 308 310 311 311 310 308 306 301 297 294 294 291 288 287 281 275 270 267 267 267 266 265
272 273 274 276 280 287 288 288 285 285 285 285 287 288 290 293 295 296 296 298 301 304 307 309 310 310 309 309 308 304 299 295 294 292 290 290 286 282 278 274 272 271 270 269
270 272 274 274 280 286 288 288 285 284 284 284 286 288 290 293 296 297 297 296 298 302 306 308 310 310 310 309 307 304 300 297 295 293 290 290 288 285 282 279 275 274 273 270
271 272 275 276 278 282 286 286 285 285 286 285 286 289 291 293 296 298 298 297 298 302 305 308 308 307 308 307 304 302 300 297 295 293 292 290 289 288 287 283 278 276 274 269
275 276 278 278 278 281 285 286 285 286 286 286 287 289 292 294 295 298 299 299 301 302 304 306 308 307 307 306 303 299 297 296 295 295 294 292 291 289 286 284 280 277 274 267
280 279 278 278 280 281 283 284 284 285 286 287 289 290 292 295 297 299 300 301 303 303 305 306 306 306 306 304 300 298 296 296 296 294 292 291 291 292 289 285 282 278 272 266
Height
5678 5679 5679 5680 5680 5681 5681 5681 5682 5684 5684 5684 5685 5686 5688 5689 5690 5690 5691 5691 5692 5693 5694 5695 5697 5698 5699 5701 5702 5704 5704 5705 5705 5706 5707 5708 5710 5711 5711 5712 5712 5714 5715 5715
5673 5673 5674 5674 5675 5675 5676 5676 5677 5678 5678 5678 5679 5680 5681 5682 5683 5683 5683 5683 5684 5684 5684 5685 5687 5688 5688 5690 5691 5692 5693 5693 5693 5694 5695 5696 5698 5699 5700 5701 5701 5702 5703 5704
5667 5669 5669 5669 5669 5670 5671 5671 5672 5672 5672 5672 5672 5674 5675 5676 5675 5675 5675 5675 5675 5675 5675 5676 5676 5677 5677 5678 5679 5680 5681 5681 5681 5682 5683 5684 5685 5686 5687 5688 5689 5690 5691 5692
5662 5663 5663 5663 5664 5665 5666 5666 5666 5666 5666 5666 5667 5666 5669 5668 5668 5668 5667 5666 5666 5665 5666 5666 5666 5666 5666 5667 5668 5668 5668 5669 5669 5669 5670 5671 5673 5674 5675 5676 5677 5678 5678 5679
5657 5657 5658 5658 5659 5659 5660 5661 5661 5661 5660 5660 5661 5659 5661 5660 5660 5660 5660 5659 5658 5657 5656 5656 5656 5656 5656 5656 5656 5656 5656 5656 5656 5656 5657 5658 5659 5661 5662 5663 5664 5665 5666 5666
5651 5652 5652 5653 5654 5654 5654 5655 5655 5655 5654 5654 5655 5653 5654 5653 5654 5653 5652 5651 5649 5648 5647 5647 5646 5646 5645 5645 5644 5644 5644 5644 5643 5643 5644 5644 5646 5647 5649 5650 5651 5652 5653 5653
5646 5647 5647 5647 5648 5649 5649 5650 5649 5648 5647 5648 5649 5647 5647 5647 5646 5645 5644 5643 5641 5640 5639 5638 5637 5636 5635 5634 5632 5631 5631 5631 5630 5630 5631 5632 5633 5634 5635 5636 5638 5639 5640 5640
5640 5642 5642 5642 5643 5643 5643 5644 5644 5643 5642 5642 5642 5641 5642 5641 5640 5638 5637 5635 5633 5632 5630 5629 5627 5625 5624 5623 5621 5619 5618 5618 5618 5618 5619 5620 5620 5621 5622 5623 5625 5626 5627 5628
5635 5636 5636 5636 5637 5637 5637 5638 5638 5637 5636 5636 5636 5635 5635 5634 5633 5632 5630 5628 5626 5624 5622 5619 5617 5614 5612 5611 5609 5607 5606 5606 5605 5606 5607 5608 5608 5608 5610 5611 5612 5613 5614 5616
5630 5630 5631 5631 5632 5632 5633 5632 5633 5631 5630 5629 5630 5630 5629 5628 5626 5625 5623 5621 5618 5616 5613 5610 5607 5604 5602 5600 5598 5596 5595 5594 5594 5594 5595 5596 5596 5597 5598 5599 5600 5602 5603 5604
5625 5626 5626 5626 5627 5627 5628 5628 5626 5626 5625 5624 5624 5626 5623 5621 5620 5618 5616 5614 5611 5608 5605 5602 5599 5596 5593 5590 5588 5586 5584 5583 5583 5583 5584 5585 5586 5587 5588 5589 5590 5591 5592 5593
5621 5621 5621 5622 5622 5621 5621 5622 5621 5621 5620 5619 5618 5622 5618 5616 5614 5612 5609 5607 5604 5601 5598 5595 5591 5588 5584 5581 5578 5576 5575 5574 5573 5573 5574 5575 5576 5577 5578 5579 5580 5581 5582 5583
5616 5616 5616 5617 5619 5617 5616 5616 5616 5615 5615 5614 5613 5617 5613 5610 5608 5606 5603 5601 5598 5594 5591 5587 5584 5580 5577 5574 5571 5568 5566 5565 5565 5564 5565 5566 5567 5569 5569 5570 5570 5571 5572 5574
5611 5611 5612 5613 5611 5611 5611 5611 5610 5609 5609 5609 5609 5609 5608 5604 5602 5600 5598 5595 5591 5588 5584 5581 5577 5573 5570 5567 5564 5561 5559 5558 5557 5557 5557 5558 5559 5560 5560 5561 5562 5563 5564 5565
5605 5606 5606 5606 5606 5605 5605 5605 5605 5604 5604 5604 5604 5603 5602 5599 5597 5595 5592 5589 5585 5582 5578 5574 5571 5567 5564 5560 5557 5555 5552 5551 5550 5549 5550 5550 5551 5552 5552 5553 5554 5555 5556 5556
5600 5601 5601 5601 5601 5600 5600 5600 5600 5599 5599 5599 5598 5598 5596 5594 5591 5588 5586 5583 5579 5575 5571 5568 5564 5560 5556 5554 5551 5548 5546 5544 5543 5543 5543 5543 5544 5544 5545 5545 5546 5547 5548 5548
5595 5595 5596 5596 5596 5595 5596 5596 5595 5595 5595 5594 5593 5593 5590 5588 5586 5583 5580 5577 5573 5569 5565 5562 5558 5554 5550 5548 5545 5543 5540 5539 5538 5537 5537 5537 5537 5537 5537 5538 5539 5540 5541 5542
5590 5590 5590 5590 5592 5591 5594 5591 5590 5590 5589 5588 5587 5586 5584 5582 5580 5577 5574 5571 5567 5564 5560 5557 5553 5549 5546 5543 5540 5538 5536 5534 5533 5532 5532 5532 5531 5531 5531 5532 5533 5534 5534 5535
5585 5585 5585 5586 5586 5586 5587 5586 5585 5584 5584 5583 5582 5581 5579 5577 5576 5573 5569 5566 5562 5559 5555 5552 5549 5545 5542 5539 5536 5534 5532 5531 5529 5528 5527 5527 5526 5526 5526 5526 5527 5528 5528 5528
5580 5581 5581 5581 5581 5581 5583 5581 5579 5580 5579 5578 5576 5575 5574 5572 5571 5569 5565 5561 5558 5554 5551 5547 5544 5541 5538 5535 5532 5530 5529 5527 5525 5524 5523 5522 5521 5520 5521 5521 5521 5521 5521 5522
5576 5576 5576 5576 5575 5576 5576 5575 5575 5575 5574 5572 5570 5569 5568 5566 5564 5562 5559 5556 5553 5550 5546 5543 5540 5537 5533 5530 5528 5526 5524 5523 5521 5520 5518 5517 5516 5516 5515 5515 5515 5515 5515 5516
5571 5571 5571 5571 5571 5573 5570 5569 5569 5568 5567 5566 5565 5563 5562 5560 5558 5555 5553 5551 5548 5545 5542 5539 5536 5533 5529 5527 5524 5522 5520 5519 5517 5516 5514 5513 5512 5511 5510 5510 5510 5509 5509 5510
5566 5567 5566 5567 5568 5566 5565 5563 5562 5562 5561 5560 5559 5558 5556 5555 5552 5550 5548 5545 5543 5540 5537 5534 5531 5528 5525 5522 5520 5518 5516 5514 5513 5511 5510 5509 5507 5506 5505 5505 5505 5504 5504 5505
5562 5561 5562 5562 5562 5561 5559 5558 5557 5556 5555 5554 5553 5552 5550 5549 5547 5545 5542 5540 5537 5535 5532 5529 5526 5523 5521 5518 5515 5513 5511 5509 5508 5507 5505 5504 5503 5502 5501 5500 5500 5499 5499 5500
5557 5556 5556 5556 5556 5556 5555 5553 5552 5551 5550 5549 5548 5546 5545 5543 5541 5539 5537 5534 5532 5529 5527 5524 5521 5518 5516 5513 5510 5509 5507 5505 5504 5502 5500 5499 5498 5497 5496 5495 5494 5494 5494 5494
5552 5551 5551 5551 5551 5550 5550 5548 5547 5546 5545 5544 5542 5541 5539 5537 5535 5533 5531 5529 5526 5524 5521 5519 5516 5514 5511 5508 5506 5504 5502 5500 5499 5497 5496 5494 5493 5492 5491 5490 5489 5489 5489 5489